Location: Cheyres
(46.8153°N, 6.7877°E)
Time: 21:47:04
(UTC+00:00)

BlueWalker 3 - Pass Details

Date: 05 March 2024
Orbit: 485 x 495 km, 53.2° (Epoch: 21 April)

Event Time Altitude Azimuth Distance (km) Brightness Sun altitude
Rises 19:34:02 0° 287° (WNW) 2,558 7.0 -22.7°
Reaches altitude 10° 19:37:13 10° 258° (WSW) 1,669 5.4 -23.2°
Maximum altitude 19:38:55 13° 231° (SW) 1,503 4.7 -23.5°
Enters shadow 19:40:34 10° 204° (SSW) 1,654 4.6 -23.7°
